Date,TemperatureHighF,TemperatureAvgF,TemperatureLowF,DewpointHighF,DewpointAvgF,DewpointLowF,HumidityHigh,HumidityAvg,HumidityLow,PressureMaxIn,PressureMinIn,WindSpeedMaxMPH,WindSpeedAvgMPH,GustSpeedMaxMPH,PrecipitationSumIn
2013-12-3,49.5,49.3,49.0,47.8,47.5,47.3,94,94,93,29.92,29.90,0,0,0,0.00
2013-12-4,66.0,54.6,49.0,56.4,51.7,47.7,99,91,70,30.02,29.91,0,0,0,0.00
2013-12-5,70.6,61.1,55.8,62.3,58.6,54.1,100,92,75,30.04,29.92,0,0,0,0.28
2013-12-6,67.0,60.8,48.2,63.7,59.3,47.7,100,95,84,30.00,29.86,0,0,0,0.26
2013-12-7,48.6,39.2,35.6,48.1,38.4,35.1,99,97,91,30.37,29.95,0,0,0,0.01
2013-12-8,39.6,35.8,34.4,38.6,35.1,33.9,100,98,93,30.35,30.18,0,0,0,0.15
2013-12-9,49.1,45.1,36.2,49.1,44.9,35.9,100,99,96,30.21,30.02,0,0,0,0.19
2013-12-10,44.0,35.5,26.4,43.4,33.4,22.2,100,92,79,30.34,29.90,0,0,0,0.32
2013-12-11,50.0,33.3,21.0,29.2,21.7,17.3,91,66,38,30.50,30.33,0,0,0,0.00
2013-12-12,36.5,27.8,22.6,21.2,16.3,9.5,87,64,37,30.46,30.35,0,0,0,0.00
2013-12-13,32.7,23.8,20.9,18.7,13.0,9.8,74,63,53,30.44,30.39,0,0,0,0.00
2013-12-14,42.4,38.6,34.9,42.1,31.7,20.3,99,78,46,30.28,29.79,0,0,0,0.49
2013-12-15,40.9,31.3,26.4,40.9,30.2,24.9,100,96,89,30.16,29.77,0,0,0,0.04
2013-12-16,53.7,36.8,23.7,37.3,27.9,22.7,97,73,41,30.26,30.15,0,0,0,0.00
2013-12-17,57.2,43.2,34.4,38.7,31.8,22.7,79,65,45,30.17,29.94,0,0,0,0.00
2013-12-18,46.7,33.5,24.9,23.2,16.9,8.6,83,54,27,30.34,30.09,0,0,0,0.00
2013-12-19,60.6,44.3,31.4,32.0,23.0,10.8,59,43,33,30.35,30.19,0,0,0,0.00
2013-12-20,65.0,51.8,42.3,47.1,33.8,23.4,84,52,36,30.19,30.08,0,0,0,0.00
2013-12-21,60.9,56.8,51.5,60.5,55.2,46.8,100,94,84,30.10,29.90,0,0,0,0.07
2013-12-22,62.0,56.7,53.5,61.0,56.2,52.8,100,98,87,30.03,29.86,0,0,0,2.29
2013-12-23,55.3,42.8,30.6,55.3,42.2,30.1,100,97,93,30.22,29.96,0,0,0,0.23
2013-12-24,31.0,26.0,19.1,30.0,22.3,15.2,98,86,73,30.47,30.22,0,0,0,0.00
2013-12-25,41.2,26.7,17.9,22.4,16.1,13.7,90,67,40,30.54,30.38,0,0,0,0.00
2013-12-26,46.4,32.8,23.7,27.8,21.9,14.2,78,65,46,30.41,30.31,0,0,0,0.00
2013-12-27,52.1,36.0,27.0,30.6,24.9,22.5,88,66,34,30.50,30.38,0,0,0,0.00
2013-12-28,46.8,36.5,29.9,41.4,26.4,21.8,92,67,42,30.44,30.30,0,0,0,0.08
2013-12-29,48.2,40.3,35.6,45.6,38.8,34.7,100,95,85,30.02,29.83,0,0,0,0.21
2013-12-30,40.6,36.2,30.7,38.4,34.1,29.4,96,92,85,30.18,30.00,0,0,0,0.00
2013-12-31,37.5,31.0,27.3,29.3,23.0,17.9,95,73,55,30.42,30.16,0,0,0,0.00